Weather History for K08D - October, 2013

Change the Weather History Date:

Sunday, October 6, 2013

  Actual Average (KMOT) Record (KMOT)
Temperature  
Mean Temperature 47 °F 49 °F  
Max Temperature 68 °F 60 °F 90 °F (1920)
Min Temperature 26 °F 38 °F 17 °F (1954)
Degree Days  
Heating Degree Days 18 16  
Month to date heating degree days 90  
Since 1 July heating degree days 410  
Cooling Degree Days 0 0  
Month to date cooling degree days 0  
Year to date cooling degree days 444  
Moisture  
Dew Point 33 °F    
Average Humidity 67    
Maximum Humidity 100    
Minimum Humidity 30    
Precipitation  
Precipitation 0.00 in 0.05 in 1.61 in (1994)
Month to date precipitation 0.27  
Year to date precipitation 15.17  
Sea Level Pressure  
Sea Level Pressure 29.98 in    
Wind  
Wind Speed 6 mph (West)    
Max Wind Speed 20 mph    
Max Gust Speed 26 mph    
Visibility 10 miles    
Events      
T = Trace of Precipitation, MM = Missing Value Source: NWS Daily Summary

Daily Weather History Graph

Daily Weather History Graph

Search for Another Location

Airport or City:

Trip Planner

Search our weather history database for the weather conditions in past years. The results will help you decide how hot, cold, wet, or windy it might be!

Date:

Astronomy

Oct. 06, 2013 Rise Set
Actual Time 7:56 AM CDT 7:17 PM CDT
Civil Twilight 7:25 AM CDT 7:48 PM CDT
Nautical Twilight 6:49 AM CDT 8:25 PM CDT
Astronomical Twilight 6:12 AM CDT 9:01 PM CDT
Moon 9:54 AM CDT (10/6) 8:06 PM CDT (10/6)
Length of Visible Light 12h 23m
Length of Day
11h 21m
Waxing Crescent, 3% of the Moon is Illuminated
Oct 6
Waxing Crescent
Oct 11
First Quarter
Oct 18
Full
Oct 26
Last Quarter
Nov 3
New

Hourly Weather History & Observations

Time (CDT) Temp. Windchill Dew Point Humidity Pressure Visibility Wind Dir Wind Speed Gust Speed Precip Events Conditions
12:15 AM 26.6 °F - 24.8 °F 93% 30.03 in 10.0 mi Calm Calm - N/A   Clear
12:35 AM 28.4 °F 23.3 °F 26.6 °F 93% 30.03 in 10.0 mi SW 4.6 mph - N/A   Clear
12:55 AM 26.6 °F 20.0 °F 24.8 °F 93% 30.03 in 10.0 mi SW 5.8 mph - N/A   Clear
1:15 AM 26.6 °F 21.2 °F 26.6 °F 100% 30.03 in 10.0 mi SW 4.6 mph - N/A   Clear
1:35 AM 26.6 °F 22.6 °F 26.6 °F 100% 30.02 in 10.0 mi WSW 3.5 mph - N/A   Clear
1:55 AM 26.6 °F - 26.6 °F 100% 30.03 in 10.0 mi Calm Calm - N/A   Clear
2:15 AM 26.6 °F - 24.8 °F 93% 30.03 in 10.0 mi Calm Calm - N/A   Clear
2:35 AM 26.6 °F - 26.6 °F 100% 30.03 in 10.0 mi Calm Calm - N/A   Clear
2:55 AM 26.6 °F 22.6 °F 24.8 °F 93% 30.03 in 10.0 mi SSW 3.5 mph - N/A   Clear
3:15 AM 26.6 °F - 26.6 °F 100% 30.02 in 10.0 mi Calm Calm - N/A   Clear
3:35 AM 26.6 °F 22.6 °F 24.8 °F 93% 30.02 in 10.0 mi WSW 3.5 mph - N/A   Clear
3:55 AM 28.4 °F 23.3 °F 26.6 °F 93% 30.02 in 10.0 mi West 4.6 mph - N/A   Clear
4:15 AM 28.4 °F 22.2 °F 28.4 °F 100% 30.01 in 10.0 mi West 5.8 mph - N/A   Clear
4:35 AM 28.4 °F 22.2 °F 28.4 °F 100% 30.01 in 10.0 mi West 5.8 mph - N/A   Clear
4:55 AM 32.0 °F 26.4 °F 30.2 °F 93% 30.00 in 10.0 mi West 5.8 mph - N/A   Clear
5:15 AM 32.0 °F 27.5 °F 32.0 °F 100% 30.00 in 10.0 mi West 4.6 mph - N/A   Clear
5:35 AM 32.0 °F - 32.0 °F 100% 30.00 in 10.0 mi Calm Calm - N/A   Clear
5:55 AM 32.0 °F 28.7 °F 32.0 °F 100% 30.00 in 10.0 mi WSW 3.5 mph - N/A   Clear
6:15 AM 28.4 °F 22.2 °F 28.4 °F 100% 30.00 in 10.0 mi West 5.8 mph - N/A   Clear
6:35 AM 32.0 °F 26.4 °F 32.0 °F 100% 30.00 in 10.0 mi West 5.8 mph - N/A   Clear
6:55 AM 32.0 °F 24.8 °F 30.2 °F 93% 30.00 in 10.0 mi West 8.1 mph - N/A   Clear
7:15 AM 32.0 °F 28.7 °F 30.2 °F 93% 30.00 in 10.0 mi West 3.5 mph - N/A   Clear
7:35 AM 32.0 °F - 28.4 °F 87% 30.00 in 10.0 mi Calm Calm - N/A   Clear
7:55 AM 32.0 °F 28.7 °F 28.4 °F 87% 30.00 in 10.0 mi SW 3.5 mph - N/A   Clear
8:15 AM 32.0 °F 27.5 °F 28.4 °F 87% 30.00 in 10.0 mi SW 4.6 mph - N/A   Clear
8:35 AM 32.0 °F 25.6 °F 30.2 °F 93% 30.01 in 10.0 mi WSW 6.9 mph - N/A   Clear
8:55 AM 32.0 °F 26.4 °F 32.0 °F 100% 30.01 in 10.0 mi WSW 5.8 mph - N/A   Clear
9:15 AM 35.6 °F 32.8 °F 33.8 °F 93% 30.01 in 10.0 mi WSW 3.5 mph - N/A   Clear
9:35 AM 39.2 °F 33.6 °F 35.6 °F 87% 30.01 in 10.0 mi WSW 8.1 mph - N/A   Clear
9:55 AM 41.0 °F 35.2 °F 35.6 °F 81% 30.02 in 10.0 mi West 9.2 mph - N/A   Clear
10:15 AM 44.6 °F 39.7 °F 33.8 °F 66% 30.01 in 10.0 mi West 9.2 mph - N/A   Clear
10:35 AM 46.4 °F 42.4 °F 33.8 °F 62% 30.01 in 10.0 mi West 8.1 mph - N/A   Clear
10:55 AM 50.0 °F - 33.8 °F 54% 30.01 in 10.0 mi West 11.5 mph - N/A   Clear
11:15 AM 53.6 °F - 33.8 °F 47% 30.00 in 10.0 mi WSW 6.9 mph - N/A   Clear
11:35 AM 57.2 °F - 32.0 °F 38% 30.00 in 10.0 mi West 12.7 mph - N/A   Clear
11:55 AM 59.0 °F - 32.0 °F 36% 29.99 in 10.0 mi West 10.4 mph - N/A   Clear
12:15 PM 59.0 °F - 32.0 °F 36% 29.99 in 10.0 mi West 12.7 mph - N/A   Clear
12:35 PM 59.0 °F - 30.2 °F 34% 29.99 in 10.0 mi West 17.3 mph - N/A   Clear
12:55 PM 60.8 °F - 32.0 °F 34% 29.98 in 10.0 mi West 13.8 mph 19.6 mph N/A   Clear
1:15 PM 60.8 °F - 32.0 °F 34% 29.98 in 10.0 mi West 11.5 mph 18.4 mph N/A   Clear
1:35 PM 62.6 °F - 35.6 °F 37% 29.98 in 10.0 mi WSW 12.7 mph - N/A   Clear
1:55 PM 62.6 °F - 35.6 °F 37% 29.97 in 10.0 mi WSW 13.8 mph 17.3 mph N/A   Clear
2:15 PM 64.4 °F - 35.6 °F 34% 29.95 in 10.0 mi West 12.7 mph 18.4 mph N/A   Clear
2:35 PM 64.4 °F - 35.6 °F 34% 29.94 in 10.0 mi West 13.8 mph 23.0 mph N/A   Clear
2:55 PM 66.2 °F - 37.4 °F 35% 29.93 in 10.0 mi West 18.4 mph 24.2 mph N/A   Clear
3:15 PM 66.2 °F - 35.6 °F 32% 29.93 in 10.0 mi West 17.3 mph 26.5 mph N/A   Clear
3:35 PM 66.2 °F - 35.6 °F 32% 29.93 in 10.0 mi WNW 13.8 mph 23.0 mph N/A   Clear
3:55 PM 66.2 °F - 35.6 °F 32% 29.93 in 10.0 mi West 19.6 mph - N/A   Clear
4:15 PM 68.0 °F - 35.6 °F 30% 29.93 in 10.0 mi West 18.4 mph 25.3 mph N/A   Clear
4:35 PM 68.0 °F - 37.4 °F 33% 29.92 in 10.0 mi West 13.8 mph 23.0 mph N/A   Clear
4:55 PM 68.0 °F - 35.6 °F 30% 29.92 in 10.0 mi West 15.0 mph 21.9 mph N/A   Clear
5:15 PM 68.0 °F - 37.4 °F 33% 29.92 in 10.0 mi WNW 13.8 mph 20.7 mph N/A   Clear
5:35 PM 66.2 °F - 37.4 °F 35% 29.92 in 10.0 mi NW 16.1 mph 24.2 mph N/A   Clear
5:55 PM 66.2 °F - 37.4 °F 35% 29.92 in 10.0 mi NW 11.5 mph 20.7 mph N/A   Clear
6:15 PM 64.4 °F - 37.4 °F 37% 29.92 in 10.0 mi NW 13.8 mph - N/A   Clear
6:35 PM 64.4 °F - 39.2 °F 40% 29.92 in 10.0 mi NW 8.1 mph - N/A   Clear
6:55 PM 62.6 °F - 39.2 °F 42% 29.93 in 10.0 mi NNW 9.2 mph - N/A   Clear
7:15 PM 57.2 °F - 39.2 °F 51% 29.93 in 10.0 mi NNW 8.1 mph - N/A   Clear
7:35 PM 57.2 °F - 39.2 °F 51% 29.94 in 10.0 mi North 11.5 mph - N/A   Clear
7:55 PM 55.4 °F - 39.2 °F 54% 29.94 in 10.0 mi North 10.4 mph - N/A   Clear
8:15 PM 53.6 °F - 39.2 °F 58% 29.94 in 10.0 mi North - - N/A   Clear
8:35 PM 53.6 °F - 37.4 °F 54% 29.94 in 10.0 mi North 10.4 mph - N/A   Clear
8:55 PM 51.8 °F - 37.4 °F 58% 29.95 in 10.0 mi North 10.4 mph - N/A   Clear
9:15 PM 50.0 °F - 37.4 °F 62% 29.95 in 10.0 mi North 8.1 mph - N/A   Clear
9:35 PM 46.4 °F 43.5 °F 37.4 °F 71% 29.95 in 10.0 mi North 5.8 mph - N/A   Clear
9:55 PM 46.4 °F 44.3 °F 37.4 °F 71% 29.95 in 10.0 mi NNW 4.6 mph - N/A   Clear
10:15 PM 46.4 °F 44.3 °F 37.4 °F 71% 29.96 in 10.0 mi NNW 4.6 mph - N/A   Clear
10:35 PM 44.6 °F 42.2 °F 37.4 °F 76% 29.96 in 10.0 mi NNW 4.6 mph - N/A   Clear
10:55 PM 46.4 °F 44.3 °F 37.4 °F 71% 29.96 in 10.0 mi NNW 4.6 mph - N/A   Partly Cloudy
11:15 PM 46.4 °F 44.3 °F 37.4 °F 71% 29.96 in 10.0 mi NNW 4.6 mph - N/A   Mostly Cloudy
11:35 PM 46.4 °F 44.3 °F 37.4 °F 71% 29.96 in 10.0 mi NNW 4.6 mph - N/A   Partly Cloudy
11:55 PM 46.4 °F 43.5 °F 37.4 °F 71% 29.95 in 10.0 mi North 5.8 mph - N/A   Clear